User: anonymous   Login
Location: Marlborough
(51.4223°N, 1.7415°W)
Time: 12:32:12
(UTC+01:00)
Language:

BlueWalker 3 - Orbit

View from above orbital plane
View from above orbital plane
View from above satellite
View from above satellite

Ground track
Ground track

The orbit data is extracted from the following two-line orbital elements,

1 53807U 22111AL  24169.78605532  .00005272  00000-0  21391-3 0  9993
2 53807  53.2370 190.8636 0009768  92.0517 268.1602 15.26223656 98327
Epoch (UTC): 17 June 2024 18:51:55
Eccentricity: 0.0009768
inclination: 53.2370°
perigee height: 480 km
apogee height: 494 km
right ascension of ascending node: 190.8636°
argument of perigee: 92.0517°
revolutions per day: 15.26223656
mean anomaly at epoch: 268.1602°
orbit number at epoch: 9832

The dashed part of the orbit path shows where the satellite is in the earth's shadow,  

DLR